EHI
0 0 0 0 0 0 0 0 0 0 0 0 0 0 0 0 0 0 0 0 0 0 0 0 0 0 0 0 0 0 0 0 0 0 0 0 0 0 0 0 0 0 0 0
0 0 0 0 0 0 0 0 0 0 0 0 0 0 0 0 0 0 0 0 0 0 0 0 0 0 0 0 0 0 0 0 0 0 0 0 0 0 0 0 0 0 0 0
0 0 0 0 0 0 0 0 0 0 0 0 0 0 0 0 0 0 0 0 0 0 0 0 0 0 0 0 0 0 0 0 0 0 0 0 0 0 0 0 0 0 0 0
0 0 0 0 0 0 0 0 0 0 0 0 0 0 0 0 0 0 0 0 0 0 0 0 0 0 0 0 0 0 0 0 0 0 0 0 0 0 0 0 0 0 0 0
0 0 0 0 0 0 0 0 0 0 0 0 0 0 0 0 0 0 0 0 0 0 0 0 0 0 0 0 0 0 0 0 0 0 0 0 0 0 0 0 0 0 0 0
0 0 0 0 0 0 0 0 0 0 0 0 0 0 0 0 0 0 0 0 0 0 0 0 0 0 0 0 0 0 0 0 0 0 0 0 0 0 0 0 0 0 0 0
0 0 0 0 0 0 0 0 0 0 0 0 0 0 0 0 0 0 0 0 0 0 0 0 0 0 0 0 0 0 0 0 0 0 0 0 0 0 0 0 0 0 0 0
0 0 0 0 0 0 0 0 0 0 0 0 0 0 0 0 0 0 0 0 0 0 0 0 0 0 0 0 0 0 0 0 0 0 0 0 0 0 0 0 0 0 0 0
0 0 0 0 0 0 0 0 0 0 0 0 0 0 0 0 0 0 0 0 0 0 0 0 0 0 0 0 0 0 0 0 0 0 0 0 0 0 0 0 0 0 0 0
0 0 0 0 0 0 0 0 0 0 0 0 0 0 0 0 0 0 0 0 0 0 0 0 0 0 0 0 0 0 0 0 0 0 0 0 0 0 0 0 0 0 0 0
0 0 0 0 0 0 0 0 0 0 0 0 0 0 0 0 0 0 0 0 0 0 0 0 0 0 0 0 0 0 0 0 0 0 0 0 0 0 0 0 0 0 0 0
0 0 0 0 0 0 0 0 0 0 0 0 0 0 0 0 0 0 0 0 0 0 0 0 0 0 0 0 0 0 0 0 0 0 0 0 0 0 0 0 0 0 0 0
0 0 0 0 0 0 0 0 0 0 0 0 0 0 0 0 0 0 0 0 0 0 0 0 0 0 0 0 0 0 0 0 0 0 0 0 0 0 0 0 0 0 0 0
0 0 0 0 0 0 0 0 0 0 0 0 0 0 0 0 0 0 0 0 0 0 0 0 0 0 0 0 0 0 0 0 0 0 0 0 0 0 0 0 0 0 0 0
0 0 0 0 0 0 0 0 0 0 0 0 0 0 0 0 0 0 0 0 0 0 0 0 0 0 0 0 0 0 0 0 0 0 0 0 0 0 0 0 0 0 0 0
0 0 0 0 0 0 0 0 0 0 0 0 0 0 0 0 0 0 0 0 0 0 0 0 0 0 0 0 0 0 0 0 0 0 0 0 0 0 0 0 0 0 0 0
0 0 0 0 0 0 0 0 0 0 0 0 0 0 0 0 0 0 0 0 0 0 0 0 0 0 0 0 0 0 0 0 0 0 0 0 0 0 0 0 0 0 0 0
0 0 0 0 0 0 0 0 0 0 0 0 0 0 0 0 0 0 0 0 0 0 0 0 0 0 0 0 0 0 0 0 0 0 0 0 0 0 0 0 0 0 0 0
0 0 0 0 0 0 0 0 0 0 0 0 0 0 0 0 0 0 0 0 0 0 0 0 0 0 0 0 0 0 0 0 0 0 0 0 0 0 0 0 0 0 0 0
0 0 0 0 0 0 0 0 0 0 0 0 0 0 0 0 0 0 0 0 0 0 0 0 0 0 0 0 0 0 0 0 0 0 0 0 0 0 0 0 0 0 0 0
0 0 0 0 0 0 0 0 0 0 0 0 0 0 0 0 0 0 0 0 0 0 0 0 0 0 0 0 0 0 0 0 0 0 0 0 0 0 0 0 0 0 0 0
0 0 0 0 0 0 0 0 0 0 0 0 0 0 0 0 0 0 0 0 0 0 0 0 0 0 0 0 0 0 0 0 0 0 0 0 0 0 0 0 0 0 0 0
0 0 0 0 0 0 0 0 0 0 0 0 0 0 0 0 0 0 0 0 0 0 0 0 0 0 0 0 0 0 0 0 0 0 0 0 0 0 0 0 0 0 0 0
0 0 0 0 0 0 0 0 0 0 0 0 0 0 0 0 0 0 0 0 0 0 0 0 0 0 0 0 0 0 0 0 0 0 0 0 0 0 0 0 0 0 0 0
0 0 0 0 0 0 0 0 0 0 0 0 0 0 0 0 0 0 0 0 0 0 0 0 0 0 0 0 0 0 0 0 0 0 0 0 0 0 0 0 0 0 0 0
0 0 0 0 0 0 0 0 0 0 0 0 0 0 0 0 0 0 0 0 0 0 0 0 0 0 0 0 0 0 0 0 0 0 0 0 0 0 0 0 0 0 0 0
Wind_Speed
4 3 5 4 3 3 2 4 5 1 4 7 12 13 9 13 17 17 16 16 16 15 12 10 10 7 5 1 3 6 7 8 8 7 8 8 9 8 7 7 11 12 13 14
3 5 3 1 1 2 3 5 4 1 3 6 10 14 10 12 18 18 17 17 16 14 12 12 11 8 5 1 3 5 7 8 8 7 7 7 9 7 7 8 10 11 13 14
4 5 1 2 2 2 3 4 5 6 1 4 9 7 5 5 10 14 15 16 15 15 14 13 12 9 6 2 3 4 6 7 7 8 6 7 7 7 7 9 8 11 13 13
6 2 3 2 1 3 2 1 4 5 6 2 4 6 4 4 7 12 15 16 16 14 13 12 12 9 5 2 1 4 5 6 7 8 8 10 9 9 10 9 9 12 13 13
4 2 1 1 1 2 2 1 3 3 4 4 2 6 1 2 5 8 12 14 14 13 13 12 11 8 5 3 1 3 5 6 7 8 9 9 9 9 9 10 12 12 12 13
4 1 1 1 1 1 1 3 4 4 4 3 2 5 4 3 2 2 4 8 11 12 12 12 10 8 6 4 2 3 5 5 6 8 8 9 11 11 12 13 12 11 10 11
4 3 2 1 2 3 2 5 3 3 2 3 2 6 7 0 3 5 5 5 9 12 13 13 12 9 6 4 3 3 5 6 7 8 8 9 10 11 12 12 12 12 11 11
3 4 2 1 2 1 2 4 5 5 6 6 2 6 4 1 2 4 6 6 9 13 13 13 11 8 7 4 3 3 4 6 7 7 8 8 9 8 8 11 11 11 10 12
3 2 3 2 2 2 2 2 2 4 3 6 6 6 7 4 7 9 8 8 11 14 14 13 11 9 7 5 4 3 4 5 6 7 8 8 9 9 10 11 11 10 11 12
2 2 3 3 3 3 3 4 3 3 5 7 8 7 5 5 5 8 11 13 13 14 14 13 11 9 7 5 4 3 3 5 6 7 7 7 9 9 10 10 11 12 13 13
2 4 4 4 6 4 5 4 3 2 3 5 7 6 4 8 6 7 9 11 14 16 15 13 11 9 7 6 5 4 3 5 6 6 7 8 8 9 10 9 11 12 12 13
2 4 3 3 2 2 4 4 6 4 4 5 6 9 3 7 6 8 9 8 12 14 14 13 11 10 8 7 6 4 4 5 5 6 7 8 9 9 10 10 11 12 13 13
5 5 4 4 4 4 6 5 6 3 3 6 7 10 3 4 8 9 10 8 11 14 14 13 12 10 9 8 6 5 4 5 5 6 7 8 8 9 10 10 11 11 12 13
4 5 7 5 0 5 7 8 10 9 7 8 13 17 14 11 10 10 10 10 11 14 15 14 12 11 9 8 7 5 5 4 5 6 7 8 8 9 10 10 11 11 12 12
4 6 6 8 5 4 8 11 14 16 13 12 12 12 18 16 14 10 7 9 12 14 16 15 14 12 10 9 8 6 5 5 5 6 7 7 8 9 10 10 10 11 11 12
5 5 3 6 4 6 10 15 17 17 15 17 19 21 20 15 9 8 8 10 14 16 17 16 14 13 12 11 8 7 6 5 5 6 6 7 8 9 9 10 10 11 11 12
7 6 4 4 1 5 13 13 19 13 14 14 15 14 8 7 9 10 9 13 16 16 17 17 16 14 12 11 9 8 6 5 5 6 6 7 8 9 9 10 10 11 11 11
7 5 3 4 3 10 5 3 11 11 11 16 15 15 13 11 10 9 10 13 15 15 16 16 14 13 11 10 9 7 6 6 6 6 6 7 7 8 10 10 10 11 10 10
3 5 4 3 5 11 6 6 9 9 10 14 18 19 15 3 7 10 12 15 14 15 15 15 14 13 12 11 10 8 7 6 6 7 7 6 7 8 10 10 11 10 10 11
2 3 4 4 5 9 4 5 5 4 8 7 13 15 8 3 7 6 5 10 12 12 12 12 13 13 12 11 10 9 8 7 7 6 6 7 8 9 10 10 11 10 10 10
6 6 8 8 8 13 2 7 8 5 5 4 11 11 9 11 10 1 4 8 11 12 13 13 14 13 12 12 11 10 9 8 7 5 6 7 8 8 9 10 9 10 10 10
13 11 11 9 9 13 8 12 13 9 2 3 7 9 11 14 10 5 7 9 12 14 14 15 14 12 11 12 12 11 10 7 6 5 7 7 8 7 7 9 9 9 9 10
12 12 9 14 12 3 13 13 10 3 5 7 7 9 10 12 12 11 10 11 13 15 15 14 14 13 12 12 12 11 9 7 6 6 7 7 7 7 7 8 9 8 7 7
9 5 6 10 15 10 12 15 13 12 14 14 11 9 10 13 13 12 11 12 14 15 15 15 15 14 13 13 13 11 8 8 7 7 6 5 6 6 6 5 5 6 6 7
8 10 8 12 11 8 13 18 20 18 17 18 16 14 14 14 14 13 13 14 14 15 15 15 16 15 15 14 13 12 10 9 8 7 6 5 5 6 6 5 5 6 6 7
10 13 12 14 9 10 10 6 9 13 16 16 14 14 14 15 15 14 14 14 15 16 16 16 16 15 15 14 13 12 11 11 9 6 5 4 4 4 4 5 5 5 6 10
Wind_Direction
23 85 72 54 16 4 319 276 286 338 142 228 250 261 237 196 207 218 217 216 217 218 207 187 186 184 187 213 340 347 343 345 344 341 338 336 335 331 330 330 331 329 329 328
143 86 60 34 150 207 246 272 286 219 168 253 286 276 260 208 211 219 222 222 222 218 201 191 189 189 197 229 341 341 344 342 346 341 330 325 321 318 321 325 327 328 327 324
85 87 112 155 131 232 250 286 315 313 270 225 293 269 181 195 223 229 233 233 230 221 208 194 191 191 193 211 354 341 338 335 341 338 328 324 320 320 330 332 328 328 323 320
91 109 167 164 102 318 304 335 294 286 283 292 326 308 150 177 223 227 228 227 228 220 212 196 188 186 185 159 8 323 328 331 340 338 334 335 331 331 332 329 322 322 321 319
113 115 162 173 73 296 339 346 261 255 268 273 216 285 283 163 247 230 224 223 221 213 203 190 182 173 163 157 265 309 318 327 339 339 336 331 328 326 324 324 322 323 322 321
98 105 15 57 119 241 209 202 178 200 235 259 87 298 294 181 224 217 213 218 211 200 189 178 166 161 166 177 229 291 310 326 338 337 334 331 328 327 325 327 325 326 322 322
151 150 120 216 206 170 247 293 298 290 285 358 87 271 268 342 238 254 256 230 202 188 180 173 171 175 182 198 227 274 306 328 338 334 331 330 327 325 324 325 324 324 322 324
205 167 126 43 339 1 34 333 352 324 323 321 229 262 284 143 233 250 255 239 197 188 185 180 178 180 186 198 225 267 310 330 332 329 328 324 325 323 318 321 320 319 319 320
229 150 114 62 31 304 154 107 5 279 276 279 271 271 280 187 240 233 229 214 200 192 188 183 179 182 188 197 219 269 310 322 324 322 322 320 326 323 318 318 317 317 318 319
250 201 152 137 155 57 356 136 181 251 306 299 293 277 268 269 262 224 223 217 203 193 189 185 182 184 187 195 212 246 294 311 313 314 319 317 318 319 317 315 317 319 319 321
234 227 163 187 212 193 162 169 186 181 266 280 298 289 209 260 276 258 243 219 202 193 190 186 183 182 185 194 210 236 275 295 302 311 314 315 318 317 316 315 317 319 319 322
197 247 222 181 94 348 244 213 197 232 213 232 271 273 202 242 256 256 259 229 203 194 189 183 180 181 189 199 208 226 258 282 298 305 308 312 315 317 317 317 319 319 320 322
178 222 230 182 177 190 216 206 205 212 222 216 239 264 144 230 249 248 251 235 200 191 185 182 182 188 194 200 205 219 245 272 290 297 303 309 315 319 319 319 319 319 321 322
203 238 248 272 295 174 200 194 190 191 216 225 233 264 284 283 277 267 246 228 201 191 188 187 188 191 195 198 203 215 237 260 281 292 299 308 317 320 318 317 317 319 320 321
210 246 249 269 266 240 243 218 198 210 225 240 252 259 275 291 303 296 265 214 198 194 193 193 192 191 192 195 200 209 229 248 268 284 296 306 312 315 315 315 316 318 319 321
208 237 256 267 242 230 255 238 221 226 236 246 263 274 270 282 285 267 241 209 204 202 198 196 194 191 192 194 195 202 219 236 259 274 285 294 301 306 309 311 315 317 319 320
187 201 226 263 179 279 263 230 198 204 215 214 229 245 262 259 257 261 244 214 212 206 198 195 194 193 191 188 188 197 209 224 248 264 275 285 293 300 306 309 312 316 317 318
177 190 233 282 289 246 255 108 180 205 228 219 241 261 268 272 291 278 248 226 216 204 197 194 191 187 183 177 180 190 201 223 243 259 267 275 285 293 301 308 311 315 316 315
228 200 214 235 258 276 267 180 176 201 260 221 229 252 265 325 302 267 227 218 215 201 193 188 183 177 172 174 177 186 204 221 238 252 262 272 279 286 296 303 308 314 314 311
123 214 224 202 230 249 260 137 158 164 272 224 209 238 239 181 278 298 162 196 201 190 181 174 169 168 172 173 174 190 207 220 234 247 263 275 279 284 292 301 309 313 313 309
171 190 209 216 239 264 248 135 153 194 262 197 202 223 197 207 238 297 155 184 186 179 173 168 167 173 176 171 177 195 208 221 230 246 265 275 280 287 294 300 306 309 310 311
179 177 195 184 208 250 158 155 198 227 248 206 215 219 215 230 241 219 201 187 181 177 174 172 172 176 173 174 183 199 212 214 216 238 261 273 282 288 289 299 305 310 313 313
206 200 192 194 213 257 171 204 225 272 252 240 230 229 223 236 239 223 209 195 188 184 179 178 177 175 176 182 190 204 205 197 206 231 254 272 283 286 290 300 307 314 317 316
216 209 209 236 255 244 223 242 253 245 249 260 254 245 223 232 238 221 206 195 189 187 183 179 180 183 185 187 195 206 195 188 203 228 250 268 281 289 297 301 305 312 314 317
207 177 213 242 259 290 254 233 242 251 253 257 256 245 236 234 235 217 206 198 191 187 184 183 188 191 190 187 195 198 194 191 204 222 240 258 271 284 294 301 306 308 307 314
193 192 203 244 225 219 254 221 218 237 249 248 247 248 235 225 229 214 208 198 190 187 184 187 191 192 190 187 193 193 191 192 199 212 227 242 264 280 294 304 304 291 297 317